Year,Month,Day,Hour,Minute,Value (Times are PST for temperature in C)
2017,03,01,00,00,3.60
2017,03,01,00,01,3.60
2017,03,01,00,02,3.60
2017,03,01,00,03,3.60
2017,03,01,00,04,3.60
2017,03,01,00,05,3.60
2017,03,01,00,06,3.60
2017,03,01,00,07,3.60
2017,03,01,00,08,3.60
2017,03,01,00,09,3.60
2017,03,01,00,10,3.60
2017,03,01,00,11,3.60
2017,03,01,00,12,3.60
2017,03,01,00,13,3.60
2017,03,01,00,14,3.60
2017,03,01,00,15,3.70
2017,03,01,00,16,3.70
2017,03,01,00,17,3.70
2017,03,01,00,18,3.70
2017,03,01,00,19,3.70
2017,03,01,00,20,3.70
2017,03,01,00,21,3.70
2017,03,01,00,22,3.70
2017,03,01,00,23,3.70
2017,03,01,00,24,3.70
2017,03,01,00,25,3.70
2017,03,01,00,26,3.70
2017,03,01,00,27,3.70
2017,03,01,00,28,3.70
2017,03,01,00,29,3.70
2017,03,01,00,30,3.70
2017,03,01,00,31,3.70
2017,03,01,00,32,3.70
2017,03,01,00,33,3.70
2017,03,01,00,34,3.70
2017,03,01,00,35,3.70
2017,03,01,00,36,3.70
2017,03,01,00,37,3.70
2017,03,01,00,38,3.70
2017,03,01,00,39,3.70
2017,03,01,00,40,3.70
2017,03,01,00,41,3.70
2017,03,01,00,42,3.70
2017,03,01,00,43,3.70
2017,03,01,00,44,3.80
2017,03,01,00,45,3.70
2017,03,01,00,46,3.80
2017,03,01,00,47,3.80
2017,03,01,00,48,3.80
2017,03,01,00,49,3.80
2017,03,01,00,50,3.80
2017,03,01,00,51,3.80
2017,03,01,00,52,3.80
2017,03,01,00,53,3.80
2017,03,01,00,54,3.90
2017,03,01,00,55,3.90
2017,03,01,00,56,3.90
2017,03,01,00,57,3.90
2017,03,01,00,58,3.90
2017,03,01,00,59,3.90
2017,03,01,01,00,3.90
2017,03,01,01,01,3.90
2017,03,01,01,02,3.90
2017,03,01,01,03,3.90
2017,03,01,01,04,3.90
2017,03,01,01,05,3.90
2017,03,01,01,06,3.90
2017,03,01,01,07,3.90
2017,03,01,01,08,3.90
2017,03,01,01,09,3.90
2017,03,01,01,10,3.90
2017,03,01,01,11,3.90
2017,03,01,01,12,3.90
2017,03,01,01,13,3.90
2017,03,01,01,14,3.90
2017,03,01,01,15,3.90
2017,03,01,01,16,3.90
2017,03,01,01,17,3.90
2017,03,01,01,18,3.90
2017,03,01,01,19,3.90
2017,03,01,01,20,3.90
2017,03,01,01,21,3.90
2017,03,01,01,22,3.90
2017,03,01,01,23,3.90
2017,03,01,01,24,3.90
2017,03,01,01,25,3.90
2017,03,01,01,26,3.90
2017,03,01,01,27,3.90
2017,03,01,01,28,3.90
2017,03,01,01,29,3.90
2017,03,01,01,30,3.90
2017,03,01,01,31,3.90
2017,03,01,01,32,3.90
2017,03,01,01,33,3.90
2017,03,01,01,34,4.00
2017,03,01,01,35,3.90
2017,03,01,01,36,3.90
2017,03,01,01,37,3.90
2017,03,01,01,38,3.90
2017,03,01,01,39,3.90
2017,03,01,01,40,4.00
2017,03,01,01,41,4.00
2017,03,01,01,42,4.00
2017,03,01,01,43,4.00
2017,03,01,01,44,4.00
2017,03,01,01,45,4.00
2017,03,01,01,46,4.00
2017,03,01,01,47,4.00
2017,03,01,01,48,4.00
2017,03,01,01,49,4.00
2017,03,01,01,50,4.00
2017,03,01,01,51,4.00
2017,03,01,01,52,4.00
2017,03,01,01,53,4.00
2017,03,01,01,54,4.00
2017,03,01,01,55,4.00
2017,03,01,01,56,4.00
2017,03,01,01,57,4.00
2017,03,01,01,58,4.00
2017,03,01,01,59,4.00
2017,03,01,02,00,4.00
2017,03,01,02,01,4.00
2017,03,01,02,02,4.00
2017,03,01,02,03,4.00
2017,03,01,02,04,4.00
2017,03,01,02,05,4.00
2017,03,01,02,06,4.00
2017,03,01,02,07,4.00
2017,03,01,02,08,4.00
2017,03,01,02,09,4.00
2017,03,01,02,10,4.00
2017,03,01,02,11,4.00
2017,03,01,02,12,4.00
2017,03,01,02,13,3.90
2017,03,01,02,14,3.90
2017,03,01,02,15,3.90
2017,03,01,02,16,3.90
2017,03,01,02,17,3.90
2017,03,01,02,18,3.90
2017,03,01,02,19,3.90
2017,03,01,02,20,3.90
2017,03,01,02,21,3.80
2017,03,01,02,22,3.80
2017,03,01,02,23,3.80
2017,03,01,02,24,3.80
2017,03,01,02,25,3.80
2017,03,01,02,26,3.80
2017,03,01,02,27,3.80
2017,03,01,02,28,3.70
2017,03,01,02,29,3.70
2017,03,01,02,30,3.70
2017,03,01,02,31,3.70
2017,03,01,02,32,3.70
2017,03,01,02,33,3.70
2017,03,01,02,34,3.70
2017,03,01,02,35,3.70
2017,03,01,02,36,3.70
2017,03,01,02,37,3.70
2017,03,01,02,38,3.70
2017,03,01,02,39,3.70
2017,03,01,02,40,3.70
2017,03,01,02,41,3.70
2017,03,01,02,42,3.70
2017,03,01,02,43,3.70
2017,03,01,02,44,3.70
2017,03,01,02,45,3.70
2017,03,01,02,46,3.70
2017,03,01,02,47,3.70
2017,03,01,02,48,3.70
2017,03,01,02,49,3.60
2017,03,01,02,50,3.60
2017,03,01,02,51,3.60
2017,03,01,02,52,3.60
2017,03,01,02,53,3.60
2017,03,01,02,54,3.60
2017,03,01,02,55,3.70
2017,03,01,02,56,3.70
2017,03,01,02,57,3.70
2017,03,01,02,58,3.80
2017,03,01,02,59,3.80
2017,03,01,03,00,3.80
2017,03,01,03,01,3.80
2017,03,01,03,02,3.80
2017,03,01,03,03,3.80
2017,03,01,03,04,3.80
2017,03,01,03,05,3.70
2017,03,01,03,06,3.70
2017,03,01,03,07,3.70
2017,03,01,03,08,3.70
2017,03,01,03,09,3.70
2017,03,01,03,10,3.70
2017,03,01,03,11,3.70
2017,03,01,03,12,3.70
2017,03,01,03,13,3.60
2017,03,01,03,14,3.60
2017,03,01,03,15,3.60
2017,03,01,03,16,3.60
2017,03,01,03,17,3.60
2017,03,01,03,18,3.60
2017,03,01,03,19,3.60
2017,03,01,03,20,3.60
2017,03,01,03,21,3.50
2017,03,01,03,22,3.50
2017,03,01,03,23,3.50
2017,03,01,03,24,3.50
2017,03,01,03,25,3.50
2017,03,01,03,26,3.50
2017,03,01,03,27,3.50
2017,03,01,03,28,3.50
2017,03,01,03,29,3.50
2017,03,01,03,30,3.50
2017,03,01,03,31,3.50
2017,03,01,03,32,3.50
2017,03,01,03,33,3.50
2017,03,01,03,34,3.50
2017,03,01,03,35,3.40
2017,03,01,03,36,3.40
2017,03,01,03,37,3.40
2017,03,01,03,38,3.50
2017,03,01,03,39,3.50
2017,03,01,03,40,3.50
2017,03,01,03,41,3.50
2017,03,01,03,42,3.50
2017,03,01,03,43,3.50
2017,03,01,03,44,3.50
2017,03,01,03,45,3.50
2017,03,01,03,46,3.50
2017,03,01,03,47,3.50
2017,03,01,03,48,3.50
2017,03,01,03,49,3.50
2017,03,01,03,50,3.50
2017,03,01,03,51,3.50
2017,03,01,03,52,3.50
2017,03,01,03,53,3.50
2017,03,01,03,54,3.60
2017,03,01,03,55,3.60
2017,03,01,03,56,3.60
2017,03,01,03,57,3.60
2017,03,01,03,58,3.80
2017,03,01,03,59,3.90
2017,03,01,04,00,4.00
2017,03,01,04,01,4.20
2017,03,01,04,02,4.40
2017,03,01,04,03,4.50
2017,03,01,04,04,4.60
2017,03,01,04,05,4.70
2017,03,01,04,06,4.80
2017,03,01,04,07,4.80
2017,03,01,04,08,4.90
2017,03,01,04,09,4.90
2017,03,01,04,10,4.90
2017,03,01,04,11,5.00
2017,03,01,04,12,5.00
2017,03,01,04,13,5.00
2017,03,01,04,14,5.00
2017,03,01,04,15,5.00
2017,03,01,04,16,5.00
2017,03,01,04,17,5.10
2017,03,01,04,18,5.20
2017,03,01,04,19,5.20
2017,03,01,04,20,5.30
2017,03,01,04,21,5.30
2017,03,01,04,22,5.40
2017,03,01,04,23,5.40
2017,03,01,04,24,5.40
2017,03,01,04,25,5.40
2017,03,01,04,26,5.40
2017,03,01,04,27,5.40
2017,03,01,04,28,5.40
2017,03,01,04,29,5.50
2017,03,01,04,30,5.50
2017,03,01,04,31,5.50
2017,03,01,04,32,5.50
2017,03,01,04,33,5.50
2017,03,01,04,34,5.50
2017,03,01,04,35,5.60
2017,03,01,04,36,5.60
2017,03,01,04,37,5.60
2017,03,01,04,38,5.70
2017,03,01,04,39,5.70
2017,03,01,04,40,5.70
2017,03,01,04,41,5.70
2017,03,01,04,42,5.70
2017,03,01,04,43,5.70
2017,03,01,04,44,5.70
2017,03,01,04,45,5.80
2017,03,01,04,46,5.80
2017,03,01,04,47,5.90
2017,03,01,04,48,6.00
2017,03,01,04,49,6.10
2017,03,01,04,50,6.10
2017,03,01,04,51,6.20
2017,03,01,04,52,6.30
2017,03,01,04,53,6.40
2017,03,01,04,54,6.50
2017,03,01,04,55,6.50
2017,03,01,04,56,6.60
2017,03,01,04,57,6.60
2017,03,01,04,58,6.70
2017,03,01,04,59,6.70
2017,03,01,05,00,6.70
2017,03,01,05,01,6.70
2017,03,01,05,02,6.70
2017,03,01,05,03,6.70
2017,03,01,05,04,6.80
2017,03,01,05,05,6.80
2017,03,01,05,06,6.80
2017,03,01,05,07,6.80
2017,03,01,05,08,6.80
2017,03,01,05,09,6.80
2017,03,01,05,10,6.80
2017,03,01,05,11,6.80
2017,03,01,05,12,6.80
2017,03,01,05,13,6.80
2017,03,01,05,14,6.80
2017,03,01,05,15,6.80
2017,03,01,05,16,6.80
2017,03,01,05,17,6.90
2017,03,01,05,18,6.90
2017,03,01,05,19,6.90
2017,03,01,05,20,6.90
2017,03,01,05,21,6.90
2017,03,01,05,22,6.90
2017,03,01,05,23,6.90
2017,03,01,05,24,6.90
2017,03,01,05,25,6.90
2017,03,01,05,26,6.90
2017,03,01,05,27,6.90
2017,03,01,05,28,6.90
2017,03,01,05,29,6.90
2017,03,01,05,30,6.90
2017,03,01,05,31,6.90
2017,03,01,05,32,6.80
2017,03,01,05,33,6.80
2017,03,01,05,34,6.80
2017,03,01,05,35,6.80
2017,03,01,05,36,6.80
2017,03,01,05,37,6.80
2017,03,01,05,38,6.80
2017,03,01,05,39,6.80
2017,03,01,05,40,6.80
2017,03,01,05,41,6.70
2017,03,01,05,42,6.70
2017,03,01,05,43,6.70
2017,03,01,05,44,6.70
2017,03,01,05,45,6.70
2017,03,01,05,46,6.70
2017,03,01,05,47,6.70
2017,03,01,05,48,6.60
2017,03,01,05,49,6.60
2017,03,01,05,50,6.60
2017,03,01,05,51,6.60
2017,03,01,05,52,6.60
2017,03,01,05,53,6.60
2017,03,01,05,54,6.60
2017,03,01,05,55,6.60
2017,03,01,05,56,6.60
2017,03,01,05,57,6.60
2017,03,01,05,58,6.60
2017,03,01,05,59,6.60
2017,03,01,06,00,6.60
2017,03,01,06,01,6.60
2017,03,01,06,02,6.60
2017,03,01,06,03,6.70
2017,03,01,06,04,6.70
2017,03,01,06,05,6.70
2017,03,01,06,06,6.70
2017,03,01,06,07,6.80
2017,03,01,06,08,6.80
2017,03,01,06,09,6.80
2017,03,01,06,10,6.80
2017,03,01,06,11,6.80
2017,03,01,06,12,6.70
2017,03,01,06,13,6.70
2017,03,01,06,14,6.70
2017,03,01,06,15,6.70
2017,03,01,06,16,6.70
2017,03,01,06,17,6.70
2017,03,01,06,18,6.70
2017,03,01,06,19,6.70
2017,03,01,06,20,6.70
2017,03,01,06,21,6.70
2017,03,01,06,22,6.70
2017,03,01,06,23,6.70
2017,03,01,06,24,6.70
2017,03,01,06,25,6.70
2017,03,01,06,26,6.70
2017,03,01,06,27,6.70
2017,03,01,06,28,6.70
2017,03,01,06,29,6.70
2017,03,01,06,30,6.70
2017,03,01,09,19,6.70
2017,03,01,09,20,6.70
2017,03,01,09,21,6.70
2017,03,01,09,22,6.70
2017,03,01,09,23,6.70
2017,03,01,09,24,6.60
2017,03,01,09,25,6.60
2017,03,01,09,26,6.60
2017,03,01,09,27,6.60
2017,03,01,09,28,6.60
2017,03,01,09,29,6.60
2017,03,01,09,30,6.60
2017,03,01,09,31,6.70
2017,03,01,09,32,6.70
2017,03,01,09,33,6.70
2017,03,01,09,34,6.70
2017,03,01,09,35,6.70
2017,03,01,09,36,6.70
2017,03,01,09,37,6.70
2017,03,01,09,38,6.70
2017,03,01,09,39,6.70
2017,03,01,09,40,6.80
2017,03,01,09,41,6.80
2017,03,01,09,42,6.80
2017,03,01,09,43,6.80
2017,03,01,09,44,6.80
2017,03,01,09,45,6.80
2017,03,01,09,46,6.80
2017,03,01,09,47,6.80
2017,03,01,09,48,6.90
2017,03,01,09,49,6.90
2017,03,01,09,50,6.90
2017,03,01,09,51,7.00
2017,03,01,09,52,7.00
2017,03,01,09,53,7.00
2017,03,01,09,54,7.10
2017,03,01,09,55,7.10
2017,03,01,09,56,7.10
2017,03,01,09,57,7.10
2017,03,01,09,58,7.10
2017,03,01,09,59,7.10
2017,03,01,10,00,7.20
2017,03,01,10,01,7.20
2017,03,01,10,02,7.20
2017,03,01,10,03,7.20
2017,03,01,10,04,7.20
2017,03,01,10,05,7.20
2017,03,01,10,06,7.30
2017,03,01,10,07,7.30
2017,03,01,10,08,7.30
2017,03,01,10,09,7.30
2017,03,01,10,10,7.30
2017,03,01,10,11,7.40
2017,03,01,10,12,7.40
2017,03,01,10,13,7.40
2017,03,01,10,14,7.40
2017,03,01,10,15,7.40
2017,03,01,10,16,7.30
2017,03,01,10,17,7.30
2017,03,01,10,18,7.30
2017,03,01,10,19,7.30
2017,03,01,10,20,7.30
2017,03,01,10,21,7.30
2017,03,01,10,22,7.30
2017,03,01,10,23,7.40
2017,03,01,10,24,7.40
2017,03,01,10,25,7.40
2017,03,01,10,26,7.40
2017,03,01,10,27,7.40
2017,03,01,10,28,7.40
2017,03,01,10,29,7.40
2017,03,01,10,30,7.40
2017,03,01,10,31,7.50
2017,03,01,10,32,7.50
2017,03,01,10,33,7.50
2017,03,01,10,34,7.50
2017,03,01,10,35,7.50
2017,03,01,10,36,7.50
2017,03,01,10,37,7.50
2017,03,01,10,38,7.50
2017,03,01,10,39,7.60
2017,03,01,10,40,7.50
2017,03,01,10,41,7.60
2017,03,01,10,42,7.60
2017,03,01,10,43,7.60
2017,03,01,10,44,7.60
2017,03,01,10,45,7.60
2017,03,01,10,46,7.60
2017,03,01,10,47,7.60
2017,03,01,10,48,7.60
2017,03,01,10,49,7.60
2017,03,01,10,50,7.60
2017,03,01,10,51,7.50
2017,03,01,10,52,7.50
2017,03,01,10,53,7.50
2017,03,01,10,54,7.50
2017,03,01,10,55,7.50
2017,03,01,10,56,7.50
2017,03,01,10,57,7.50
2017,03,01,10,58,7.50
2017,03,01,10,59,7.50
2017,03,01,11,00,7.50
2017,03,01,11,01,7.50
2017,03,01,11,02,7.50
2017,03,01,11,03,7.60
2017,03,01,11,04,7.60
2017,03,01,11,05,7.60
2017,03,01,11,06,7.60
2017,03,01,11,07,7.60
2017,03,01,11,08,7.60
2017,03,01,11,09,7.60
2017,03,01,11,10,7.60
2017,03,01,11,11,7.60
2017,03,01,11,12,7.60
2017,03,01,11,13,7.60
2017,03,01,11,14,7.60
2017,03,01,11,15,7.60
2017,03,01,11,16,7.60
2017,03,01,11,17,7.70
2017,03,01,11,18,7.70
2017,03,01,11,19,7.70
2017,03,01,11,20,7.70
2017,03,01,11,21,7.70
2017,03,01,11,22,7.70
2017,03,01,11,23,7.70
2017,03,01,11,24,7.70
2017,03,01,11,25,7.70
2017,03,01,11,26,7.70
2017,03,01,11,27,7.70
2017,03,01,11,28,7.70
2017,03,01,11,29,7.70
2017,03,01,11,30,7.70
2017,03,01,11,31,7.70
2017,03,01,11,32,7.70
2017,03,01,11,33,7.70
2017,03,01,11,34,7.70
2017,03,01,11,35,7.70
2017,03,01,11,36,7.70
2017,03,01,11,37,7.70
2017,03,01,11,38,7.70
2017,03,01,11,39,7.80
2017,03,01,11,40,7.80
2017,03,01,11,41,7.80
2017,03,01,11,42,7.80
2017,03,01,11,43,7.80
2017,03,01,11,44,7.80
2017,03,01,11,45,7.80
2017,03,01,11,46,7.80
2017,03,01,11,47,7.80
2017,03,01,11,48,7.80
2017,03,01,11,49,7.80
2017,03,01,11,50,7.80
2017,03,01,11,51,7.80
2017,03,01,11,52,7.80
2017,03,01,11,53,7.80
2017,03,01,11,54,7.80
2017,03,01,11,55,7.80
2017,03,01,11,56,7.70
2017,03,01,11,57,7.70
2017,03,01,11,58,7.70
2017,03,01,11,59,7.70
2017,03,01,12,00,7.70
2017,03,01,12,01,7.70
2017,03,01,12,02,7.70
2017,03,01,12,03,7.70
2017,03,01,12,04,7.70
2017,03,01,12,05,7.70
2017,03,01,12,06,7.70
2017,03,01,12,07,7.70
2017,03,01,12,08,7.70
2017,03,01,12,09,7.70
2017,03,01,12,10,7.70
2017,03,01,12,11,7.70
2017,03,01,12,12,7.70
2017,03,01,12,13,7.70
2017,03,01,12,14,7.60
2017,03,01,12,15,7.60
2017,03,01,12,16,7.50
2017,03,01,12,17,7.50
2017,03,01,12,18,7.40
2017,03,01,12,19,7.30
2017,03,01,12,20,7.20
2017,03,01,12,21,7.10
2017,03,01,12,22,7.00
2017,03,01,12,23,7.00
2017,03,01,12,24,6.90
2017,03,01,12,25,6.80
2017,03,01,12,26,6.80
2017,03,01,12,27,6.70
2017,03,01,12,28,6.60
2017,03,01,12,29,6.60
2017,03,01,12,30,6.50
2017,03,01,12,31,6.50
2017,03,01,12,32,6.40
2017,03,01,12,33,6.40
2017,03,01,12,34,6.40
2017,03,01,12,35,6.30
2017,03,01,12,36,6.30
2017,03,01,12,37,6.30
2017,03,01,12,38,6.20
2017,03,01,12,39,6.20
2017,03,01,12,40,6.20
2017,03,01,12,41,6.10
2017,03,01,12,42,6.10
2017,03,01,12,43,6.10
2017,03,01,12,44,6.10
2017,03,01,12,45,6.00
2017,03,01,12,46,6.00
2017,03,01,12,47,6.00
2017,03,01,12,48,6.00
2017,03,01,12,49,6.00
2017,03,01,12,50,6.10
2017,03,01,12,51,6.10
2017,03,01,12,52,6.10
2017,03,01,12,53,6.10
2017,03,01,12,54,6.10
2017,03,01,12,55,6.10
2017,03,01,12,56,6.10
2017,03,01,12,57,6.20
2017,03,01,12,58,6.20
2017,03,01,12,59,6.20
2017,03,01,13,00,6.20
2017,03,01,13,01,6.20
2017,03,01,13,02,6.30
2017,03,01,13,03,6.30
2017,03,01,13,04,6.30
2017,03,01,13,05,6.30
2017,03,01,13,06,6.40
2017,03,01,13,07,6.40
2017,03,01,13,08,6.40
2017,03,01,13,09,6.40
2017,03,01,13,10,6.40
2017,03,01,13,11,6.50
2017,03,01,13,12,6.50
2017,03,01,13,13,6.50
2017,03,01,13,14,6.50
2017,03,01,13,15,6.50
2017,03,01,13,16,6.50
2017,03,01,13,17,6.60
2017,03,01,13,18,6.60
2017,03,01,13,19,6.60
2017,03,01,13,20,6.60
2017,03,01,13,21,6.70
2017,03,01,13,22,6.70
2017,03,01,13,23,6.70
2017,03,01,13,24,6.70
2017,03,01,13,25,6.70
2017,03,01,13,26,6.80
2017,03,01,13,27,6.80
2017,03,01,13,28,6.80
2017,03,01,13,29,6.80
2017,03,01,13,30,6.80
2017,03,01,13,31,6.80
2017,03,01,13,32,6.90
2017,03,01,13,33,6.90
2017,03,01,13,34,6.90
2017,03,01,13,35,7.00
2017,03,01,13,36,7.00
2017,03,01,13,37,7.00
2017,03,01,13,38,7.00
2017,03,01,13,39,7.00
2017,03,01,13,40,7.00
2017,03,01,13,41,7.00
2017,03,01,13,42,7.00
2017,03,01,13,43,7.00
2017,03,01,13,44,7.00
2017,03,01,13,45,7.00
2017,03,01,13,46,7.00
2017,03,01,13,47,7.00
2017,03,01,13,48,7.00
2017,03,01,13,49,7.10
2017,03,01,13,50,7.10
2017,03,01,13,51,7.10
2017,03,01,13,52,7.10
2017,03,01,13,53,7.10
2017,03,01,13,54,7.20
2017,03,01,13,55,7.20
2017,03,01,13,56,7.20
2017,03,01,13,57,7.20
2017,03,01,13,58,7.20
2017,03,01,13,59,7.30
2017,03,01,14,00,7.30
2017,03,01,14,01,7.30
2017,03,01,14,02,7.30
2017,03,01,14,03,7.30
2017,03,01,14,04,7.40
2017,03,01,14,05,7.40
2017,03,01,14,06,7.40
2017,03,01,14,07,7.40
2017,03,01,14,08,7.50
2017,03,01,14,09,7.50
2017,03,01,14,10,7.50
2017,03,01,14,11,7.50
2017,03,01,14,12,7.60
2017,03,01,14,13,7.60
2017,03,01,14,14,7.60
2017,03,01,14,15,7.60
2017,03,01,14,16,7.60
2017,03,01,14,17,7.60
2017,03,01,14,18,7.60
2017,03,01,14,19,7.70
2017,03,01,14,20,7.70
2017,03,01,14,21,7.70
2017,03,01,14,22,7.70
2017,03,01,14,23,7.70
2017,03,01,14,24,7.70
2017,03,01,14,25,7.70
2017,03,01,14,26,7.80
2017,03,01,14,27,7.80
2017,03,01,14,28,7.80
2017,03,01,14,29,7.80
2017,03,01,14,30,7.80
2017,03,01,14,31,7.80
2017,03,01,14,32,7.80
2017,03,01,14,33,7.80
2017,03,01,14,34,7.80
2017,03,01,14,35,7.80
2017,03,01,14,36,7.80
2017,03,01,14,37,7.80
2017,03,01,14,38,7.80
2017,03,01,14,39,7.80
2017,03,01,14,40,7.80
2017,03,01,14,41,7.80
2017,03,01,14,42,7.80
2017,03,01,14,43,7.80
2017,03,01,14,44,7.80
2017,03,01,14,45,7.80
2017,03,01,14,46,7.80
2017,03,01,14,47,7.80
2017,03,01,14,48,7.80
2017,03,01,14,49,7.80
2017,03,01,14,50,7.80
2017,03,01,14,51,7.80
2017,03,01,14,52,7.80
2017,03,01,14,53,7.80
2017,03,01,14,54,7.80
2017,03,01,14,55,7.80
2017,03,01,14,56,7.80
2017,03,01,14,57,7.80
2017,03,01,14,58,7.80
2017,03,01,14,59,7.80
2017,03,01,15,00,7.80
2017,03,01,15,01,7.80
2017,03,01,15,02,7.80
2017,03,01,15,03,7.90
2017,03,01,15,04,7.80
2017,03,01,15,05,7.90
2017,03,01,15,06,7.80
2017,03,01,15,07,7.80
2017,03,01,15,08,7.80
2017,03,01,15,09,7.80
2017,03,01,15,10,7.80
2017,03,01,15,11,7.80
2017,03,01,15,12,7.80
2017,03,01,15,13,7.90
2017,03,01,15,14,7.90
2017,03,01,15,15,7.90
2017,03,01,15,16,7.90
2017,03,01,15,17,7.90
2017,03,01,15,18,7.90
2017,03,01,15,19,7.90
2017,03,01,15,20,7.90
2017,03,01,15,21,7.90
2017,03,01,15,22,7.90
2017,03,01,15,23,8.00
2017,03,01,15,24,8.00
2017,03,01,15,25,8.00
2017,03,01,15,26,8.00
2017,03,01,15,27,8.00
2017,03,01,15,28,8.00
2017,03,01,15,29,8.10
2017,03,01,15,30,8.10
2017,03,01,15,31,8.10
2017,03,01,15,32,8.10
2017,03,01,15,33,8.10
2017,03,01,15,34,8.10
2017,03,01,15,35,8.20
2017,03,01,15,36,8.20
2017,03,01,15,37,8.20
2017,03,01,15,38,8.20
2017,03,01,15,39,8.20
2017,03,01,15,40,8.20
2017,03,01,15,41,8.20
2017,03,01,15,42,8.20
2017,03,01,15,43,8.20
2017,03,01,15,44,8.20
2017,03,01,15,45,8.20
2017,03,01,15,46,8.20
2017,03,01,15,47,8.20
2017,03,01,15,48,8.20
2017,03,01,15,49,8.30
2017,03,01,15,50,8.30
2017,03,01,15,51,8.30
2017,03,01,15,52,8.30
2017,03,01,15,53,8.30
2017,03,01,15,54,8.30
2017,03,01,15,55,8.30
2017,03,01,15,56,8.30
2017,03,01,15,57,8.30
2017,03,01,15,58,8.30
2017,03,01,15,59,8.30
2017,03,01,16,00,8.30
2017,03,01,16,01,8.30
2017,03,01,16,02,8.30
2017,03,01,16,03,8.30
2017,03,01,16,04,8.30
2017,03,01,16,05,8.30
2017,03,01,16,06,8.30
2017,03,01,16,07,8.30
2017,03,01,16,08,8.30
2017,03,01,16,09,8.30
2017,03,01,16,10,8.30
2017,03,01,16,11,8.30
2017,03,01,16,12,8.30
2017,03,01,16,13,8.30
2017,03,01,16,14,8.30
2017,03,01,16,15,8.30
2017,03,01,16,16,8.30
2017,03,01,16,17,8.30
2017,03,01,16,18,8.30
2017,03,01,16,19,8.30
2017,03,01,16,20,8.20
2017,03,01,16,21,8.20
2017,03,01,16,22,8.20
2017,03,01,16,23,8.20
2017,03,01,16,24,8.20
2017,03,01,16,25,8.20
2017,03,01,16,26,8.20
2017,03,01,16,27,8.20
2017,03,01,16,28,8.20
2017,03,01,16,29,8.20
2017,03,01,16,30,8.20
2017,03,01,16,31,8.20
2017,03,01,16,32,8.20
2017,03,01,16,33,8.10
2017,03,01,16,34,8.20
2017,03,01,16,35,8.20
2017,03,01,16,36,8.20
2017,03,01,16,37,8.10
2017,03,01,16,38,8.10
2017,03,01,16,39,8.10
2017,03,01,16,40,8.10
2017,03,01,16,41,8.10
2017,03,01,16,42,8.10
2017,03,01,16,43,8.10
2017,03,01,16,44,8.10
2017,03,01,16,45,8.10
2017,03,01,16,46,8.00
2017,03,01,16,47,8.00
2017,03,01,16,48,8.00
2017,03,01,16,49,8.00
2017,03,01,16,50,8.00
2017,03,01,16,51,8.00
2017,03,01,16,52,8.00
2017,03,01,16,53,8.00
2017,03,01,16,54,8.00
2017,03,01,16,55,8.00
2017,03,01,16,56,8.00
2017,03,01,16,57,8.00
2017,03,01,16,58,8.00
2017,03,01,16,59,8.00
2017,03,01,17,00,8.00
2017,03,01,17,01,8.00
2017,03,01,17,02,7.90
2017,03,01,17,03,7.90
2017,03,01,17,04,7.90
2017,03,01,17,05,7.90
2017,03,01,17,06,7.90
2017,03,01,17,07,7.90
2017,03,01,17,08,7.90
2017,03,01,17,09,7.90
2017,03,01,17,10,7.90
2017,03,01,17,11,7.90
2017,03,01,17,12,7.80
2017,03,01,17,13,7.80
2017,03,01,17,14,7.80
2017,03,01,17,15,7.80
2017,03,01,17,16,7.80
2017,03,01,17,17,7.80
2017,03,01,17,18,7.80
2017,03,01,17,19,7.80
2017,03,01,17,20,7.70
2017,03,01,17,21,7.70
2017,03,01,17,22,7.70
2017,03,01,17,23,7.70
2017,03,01,17,24,7.70
2017,03,01,17,25,7.70
2017,03,01,17,26,7.60
2017,03,01,17,27,7.60
2017,03,01,17,28,7.60
2017,03,01,17,29,7.60
2017,03,01,17,30,7.50
2017,03,01,17,31,7.50
2017,03,01,17,32,7.40
2017,03,01,17,33,7.40
2017,03,01,17,34,7.40
2017,03,01,17,35,7.40
2017,03,01,17,36,7.40
2017,03,01,17,37,7.30
2017,03,01,17,38,7.30
2017,03,01,17,39,7.30
2017,03,01,17,40,7.30
2017,03,01,17,41,7.30
2017,03,01,17,42,7.30
2017,03,01,17,43,7.30
2017,03,01,17,44,7.30
2017,03,01,17,45,7.30
2017,03,01,17,46,7.20
2017,03,01,17,47,7.20
2017,03,01,17,48,7.20
2017,03,01,17,49,7.20
2017,03,01,17,50,7.20
2017,03,01,17,51,7.20
2017,03,01,17,52,7.20
2017,03,01,17,53,7.20
2017,03,01,17,54,7.20
2017,03,01,17,55,7.10
2017,03,01,17,56,7.10
2017,03,01,17,57,7.10
2017,03,01,17,58,7.10
2017,03,01,17,59,7.10
2017,03,01,18,00,7.10
2017,03,01,18,01,7.00
2017,03,01,18,02,7.00
2017,03,01,18,03,7.00
2017,03,01,18,04,7.00
2017,03,01,18,05,6.90
2017,03,01,18,06,6.90
2017,03,01,18,07,6.90
2017,03,01,18,08,6.90
2017,03,01,18,09,6.90
2017,03,01,18,10,6.90
2017,03,01,18,11,6.90
2017,03,01,18,12,6.90
2017,03,01,18,13,6.90
2017,03,01,18,14,6.80
2017,03,01,18,15,6.80
2017,03,01,18,16,6.80
2017,03,01,18,17,6.80
2017,03,01,18,18,6.80
2017,03,01,18,19,6.80
2017,03,01,18,20,6.80
2017,03,01,18,21,6.80
2017,03,01,18,22,6.80
2017,03,01,18,23,6.80
2017,03,01,18,24,6.80
2017,03,01,18,25,6.80
2017,03,01,18,26,6.80
2017,03,01,18,27,6.80
2017,03,01,18,28,6.80
2017,03,01,18,29,6.80
2017,03,01,18,30,6.80
2017,03,01,18,31,6.80
2017,03,01,18,32,6.80
2017,03,01,18,33,6.80
2017,03,01,18,34,6.80
2017,03,01,18,35,6.80
2017,03,01,18,36,6.80
2017,03,01,18,37,6.80
2017,03,01,18,38,6.80
2017,03,01,18,39,6.80
2017,03,01,18,40,6.70
2017,03,01,18,41,6.70
2017,03,01,18,42,6.70
2017,03,01,18,43,6.70
2017,03,01,18,44,6.70
2017,03,01,18,45,6.70
2017,03,01,18,46,6.70
2017,03,01,18,47,6.70
2017,03,01,18,48,6.70
2017,03,01,18,49,6.70
2017,03,01,18,50,6.70
2017,03,01,18,51,6.70
2017,03,01,18,52,6.70
2017,03,01,18,53,6.60
2017,03,01,18,54,6.60
2017,03,01,18,55,6.60
2017,03,01,18,56,6.60
2017,03,01,18,57,6.50
2017,03,01,18,58,6.50
2017,03,01,18,59,6.40
2017,03,01,19,00,6.40
2017,03,01,19,01,6.40
2017,03,01,19,02,6.40
2017,03,01,19,03,6.30
2017,03,01,19,04,6.30
2017,03,01,19,05,6.30
2017,03,01,19,06,6.20
2017,03,01,19,07,6.20
2017,03,01,19,08,6.20
2017,03,01,19,09,6.10
2017,03,01,19,10,6.10
2017,03,01,19,11,6.10
2017,03,01,19,12,6.10
2017,03,01,19,13,6.00
2017,03,01,19,14,6.00
2017,03,01,19,15,6.00
2017,03,01,19,16,5.90
2017,03,01,19,17,5.90
2017,03,01,19,18,5.90
2017,03,01,19,19,5.90
2017,03,01,19,20,5.90
2017,03,01,19,21,5.90
2017,03,01,19,22,5.90
2017,03,01,19,23,5.90
2017,03,01,19,24,5.80
2017,03,01,19,25,5.80
2017,03,01,19,26,5.80
2017,03,01,19,27,5.80
2017,03,01,19,28,5.80
2017,03,01,19,29,5.80
2017,03,01,19,30,5.80
2017,03,01,19,31,5.80
2017,03,01,19,32,5.80
2017,03,01,19,33,5.70
2017,03,01,19,34,5.70
2017,03,01,19,35,5.70
2017,03,01,19,36,5.70
2017,03,01,19,37,5.70
2017,03,01,19,38,5.70
2017,03,01,19,39,5.70
2017,03,01,19,40,5.70
2017,03,01,19,41,5.60
2017,03,01,19,42,5.60
2017,03,01,19,43,5.60
2017,03,01,19,44,5.60
2017,03,01,19,45,5.60
2017,03,01,19,46,5.60
2017,03,01,19,47,5.60
2017,03,01,19,48,5.60
2017,03,01,19,49,5.60
2017,03,01,19,50,5.50
2017,03,01,19,51,5.50
2017,03,01,19,52,5.50
2017,03,01,19,53,5.50
2017,03,01,19,54,5.50
2017,03,01,19,55,5.50
2017,03,01,19,56,5.50
2017,03,01,19,57,5.40
2017,03,01,19,58,5.40
2017,03,01,19,59,5.40
2017,03,01,20,00,5.40
2017,03,01,20,01,5.40
2017,03,01,20,02,5.40
2017,03,01,20,03,5.40
2017,03,01,20,04,5.30
2017,03,01,20,05,5.30
2017,03,01,20,06,5.30
2017,03,01,20,07,5.30
2017,03,01,20,08,5.30
2017,03,01,20,09,5.30
2017,03,01,20,10,5.30
2017,03,01,20,11,5.30
2017,03,01,20,12,5.30
2017,03,01,20,13,5.30
2017,03,01,20,14,5.20
2017,03,01,20,15,5.20
2017,03,01,20,16,5.20
2017,03,01,20,17,5.20
2017,03,01,20,18,5.20
2017,03,01,20,19,5.20
2017,03,01,20,20,5.20
2017,03,01,20,21,5.20
2017,03,01,20,22,5.20
2017,03,01,20,23,5.10
2017,03,01,20,24,5.10
2017,03,01,20,25,5.10
2017,03,01,20,26,5.10
2017,03,01,20,27,5.10
2017,03,01,20,28,5.10
2017,03,01,20,29,5.10
2017,03,01,20,30,5.10
2017,03,01,20,31,5.00
2017,03,01,20,32,5.00
2017,03,01,20,33,5.00
2017,03,01,20,34,5.10
2017,03,01,20,35,5.10
2017,03,01,20,36,5.10
2017,03,01,20,37,5.10
2017,03,01,20,38,5.20
2017,03,01,20,39,5.20
2017,03,01,20,40,5.30
2017,03,01,20,41,5.30
2017,03,01,20,42,5.30
2017,03,01,20,43,5.40
2017,03,01,20,44,5.40
2017,03,01,20,45,5.50
2017,03,01,20,46,5.50
2017,03,01,20,47,5.60
2017,03,01,20,48,5.60
2017,03,01,20,49,5.70
2017,03,01,20,50,5.70
2017,03,01,20,51,5.80
2017,03,01,20,52,5.80
2017,03,01,20,53,5.90
2017,03,01,20,54,5.90